VK6JI-11 Weather Reports


time (UTC)temp
C
wind
direction
speed
KPH
gust
KPH
rain 1hr
cm
rain 24hr
cm
rain mn
cm
humidity
%
barometer
mb
20260506150717 14 87 1.6 3.2 0.00 0.00 0.00 69 1028.9
20260506150516 14 87 1.6 3.2 0.00 0.00 0.00 69 1028.9
20260506150316 15 87 1.6 3.2 0.00 0.00 0.00 69 1028.9
20260506150115 14 87 0.0 3.2 0.00 0.00 0.00 69 1029.0
20260506145915 14 87 1.6 3.2 0.00 0.00 0.00 69 1029.0
20260506145714 14 87 1.6 4.8 0.00 0.00 0.00 69 1029.0
20260506145514 14 86 1.6 4.8 0.00 0.00 0.00 69 1029.0
20260506145311 14 86 1.6 4.8 0.00 0.00 0.00 69 1029.0
20260506145110 14 86 1.6 4.8 0.00 0.00 0.00 69 1029.0
20260506144910 14 86 1.6 4.8 0.00 0.00 0.00 69 1029.0
20260506144709 14 87 0.0 0.0 0.00 0.00 0.00 69 1028.9
20260506144508 14 87 0.0 0.0 0.00 0.00 0.00 69 1029.0
20260506144308 14 87 0.0 0.0 0.00 0.00 0.00 69 1029.0
20260506144108 15 86 0.0 0.0 0.00 0.00 0.00 69 1029.0
20260506143908 15 86 0.0 0.0 0.00 0.00 0.00 68 1029.0
20260506143707 15 86 0.0 0.0 0.00 0.00 0.00 68 1029.0
20260506143506 15 86 0.0 0.0 0.00 0.00 0.00 68 1028.9
20260506143307 15 86 0.0 0.0 0.00 0.00 0.00 68 1028.9
20260506143106 15 86 0.0 0.0 0.00 0.00 0.00 68 1029.0
20260506142908 15 86 0.0 1.6 0.00 0.00 0.00 68 1029.0
20260506142706 15 86 0.0 1.6 0.00 0.00 0.00 68 1029.0
20260506142505 15 86 0.0 3.2 0.00 0.00 0.00 68 1029.0
20260506142306 15 86 0.0 3.2 0.00 0.00 0.00 68 1029.0
20260506142104 15 86 0.0 3.2 0.00 0.00 0.00 68 1029.0
20260506141905 15 86 0.0 3.2 0.00 0.00 0.00 68 1029.0
20260506141705 15 86 1.6 3.2 0.00 0.00 0.00 68 1029.0
20260506141506 15 86 0.0 3.2 0.00 0.00 0.00 68 1029.0
20260506141305 15 86 0.0 3.2 0.00 0.00 0.00 68 1029.0
20260506141102 15 86 1.6 3.2 0.00 0.00 0.00 68 1029.0
20260506140901 15 86 1.6 3.2 0.00 0.00 0.00 68 1029.1
20260506140700 15 86 1.6 3.2 0.00 0.00 0.00 68 1029.1
20260506140500 15 86 1.6 3.2 0.00 0.00 0.00 68 1029.0
20260506140300 15 86 1.6 3.2 0.00 0.00 0.00 68 1029.0
20260506140100 15 86 0.0 3.2 0.00 0.00 0.00 68 1029.1
20260506135857 15 86 1.6 3.2 0.00 0.00 0.00 68 1029.0
20260506135657 15 86 1.6 4.8 0.00 0.00 0.00 68 1028.9
20260506135457 15 86 1.6 4.8 0.00 0.00 0.00 68 1028.9
20260506135257 15 86 0.0 6.4 0.00 0.00 0.00 68 1028.9
20260506135057 15 77 1.6 6.4 0.00 0.00 0.00 68 1028.9
20260506134858 15 76 1.6 6.4 0.00 0.00 0.00 68 1028.9
20260506134657 15 76 1.6 6.4 0.00 0.00 0.00 68 1028.9
20260506134457 15 76 1.6 6.4 0.00 0.00 0.00 68 1028.9
20260506134257 15 97 1.6 3.2 0.00 0.00 0.00 68 1028.8
20260506134056 15 97 1.6 3.2 0.00 0.00 0.00 69 1028.8
20260506133856 15 97 0.0 3.2 0.00 0.00 0.00 69 1028.9
20260506133657 15 96 0.0 3.2 0.00 0.00 0.00 69 1028.9
20260506133454 15 96 0.0 3.2 0.00 0.00 0.00 69 1028.9
20260506133254 15 96 1.6 3.2 0.00 0.00 0.00 69 1028.9
20260506133053 15 96 0.0 3.2 0.00 0.00 0.00 69 1028.8
20260506132853 15 96 0.0 3.2 0.00 0.00 0.00 69 1028.9
20260506132654 15 96 0.0 4.8 0.00 0.00 0.00 69 1028.8
20260506132454 15 96 1.6 4.8 0.00 0.00 0.00 69 1028.8
20260506132253 15 96 1.6 4.8 0.00 0.00 0.00 70 1028.8
20260506132054 15 87 1.6 4.8 0.00 0.00 0.00 70 1028.7
20260506131853 15 87 1.6 4.8 0.00 0.00 0.00 70 1028.7
20260506131653 15 87 0.0 3.2 0.00 0.00 0.00 70 1028.7
20260506131453 15 87 1.6 3.2 0.00 0.00 0.00 71 1028.7
20260506131253 15 87 0.0 3.2 0.00 0.00 0.00 71 1028.7
20260506131053 15 87 0.0 3.2 0.00 0.00 0.00 71 1028.7
20260506130853 15 87 0.0 1.6 0.00 0.00 0.00 71 1028.6
20260506130653 15 87 0.0 1.6 0.00 0.00 0.00 71 1028.6
20260506130453 15 87 0.0 1.6 0.00 0.00 0.00 71 1028.6
20260506130253 15 87 0.0 1.6 0.00 0.00 0.00 71 1028.6
20260506130053 15 87 0.0 1.6 0.00 0.00 0.00 71 1028.6
20260506125853 15 87 0.0 1.6 0.00 0.00 0.00 71 1028.6
20260506125653 15 87 0.0 3.2 0.00 0.00 0.00 71 1028.5
20260506125453 15 87 0.0 3.2 0.00 0.00 0.00 71 1028.6
20260506125253 15 87 0.0 3.2 0.00 0.00 0.00 71 1028.6
20260506125053 15 87 0.0 3.2 0.00 0.00 0.00 72 1028.6
20260506124853 15 87 1.6 3.2 0.00 0.00 0.00 72 1028.5
20260506124653 15 89 0.0 3.2 0.00 0.00 0.00 72 1028.5
20260506124453 15 87 0.0 3.2 0.00 0.00 0.00 72 1028.5
20260506124253 15 87 0.0 3.2 0.00 0.00 0.00 72 1028.6
20260506124053 15 87 0.0 3.2 0.00 0.00 0.00 72 1028.5
20260506123853 15 87 0.0 1.6 0.00 0.00 0.00 72 1028.5
20260506123652 15 87 0.0 1.6 0.00 0.00 0.00 72 1028.5
20260506123452 15 87 0.0 1.6 0.00 0.00 0.00 72 1028.5
20260506123253 15 87 0.0 0.0 0.00 0.00 0.00 72 1028.4
20260506123052 15 87 0.0 0.0 0.00 0.00 0.00 72 1028.4
20260506122852 15 87 0.0 1.6 0.00 0.00 0.00 72 1028.4
20260506122652 15 87 0.0 1.6 0.00 0.00 0.00 72 1028.5
20260506122452 15 89 0.0 1.6 0.00 0.00 0.00 72 1028.5
20260506122252 15 87 0.0 1.6 0.00 0.00 0.00 72 1028.4
20260506122052 15 87 0.0 1.6 0.00 0.00 0.00 72 1028.4
20260506121852 15 87 0.0 1.6 0.00 0.00 0.00 72 1028.4
20260506121652 15 87 0.0 0.0 0.00 0.00 0.00 72 1028.4
20260506121451 15 87 0.0 0.0 0.00 0.00 0.00 71 1028.4
20260506121250 15 87 0.0 0.0 0.00 0.00 0.00 71 1028.3
20260506121049 15 87 0.0 0.0 0.00 0.00 0.00 71 1028.3
20260506120846 15 87 0.0 0.0 0.00 0.00 0.00 71 1028.2
20260506120644 15 87 0.0 0.0 0.00 0.00 0.00 71 1028.3
20260506120443 15 87 0.0 0.0 0.00 0.00 0.00 71 1028.2
20260506120242 15 87 0.0 0.0 0.00 0.00 0.00 70 1028.3
20260506120041 15 87 0.0 0.0 0.00 0.00 0.00 70 1028.2
20260506115831 15 87 0.0 0.0 0.00 0.00 0.00 70 1028.3
20260506115631 15 87 0.0 0.0 0.00 0.00 0.00 70 1028.2
20260506115431 15 87 0.0 0.0 0.00 0.00 0.00 70 1028.1
20260506115231 15 87 0.0 0.0 0.00 0.00 0.00 70 1028.2
20260506115031 15 87 0.0 0.0 0.00 0.00 0.00 70 1028.2
20260506114831 16 87 0.0 0.0 0.00 0.00 0.00 69 1028.2
20260506114631 16 87 0.0 0.0 0.00 0.00 0.00 69 1028.1
20260506114431 16 87 0.0 0.0 0.00 0.00 0.00 69 1028.1
20260506114231 16 87 0.0 0.0 0.00 0.00 0.00 69 1028.1
20260506114031 16 87 0.0 0.0 0.00 0.00 0.00 69 1028.1
20260506113830 16 87 0.0 0.0 0.00 0.00 0.00 69 1028.0
20260506113631 16 87 0.0 0.0 0.00 0.00 0.00 69 1028.0
20260506113432 16 87 0.0 0.0 0.00 0.00 0.00 69 1028.0
20260506113230 16 87 0.0 0.0 0.00 0.00 0.00 68 1028.0
20260506113031 16 87 0.0 0.0 0.00 0.00 0.00 68 1028.1
20260506112823 16 87 0.0 1.6 0.00 0.00 0.00 68 1028.1
20260506112623 16 87 0.0 1.6 0.00 0.00 0.00 68 1028.1
20260506112422 16 87 0.0 1.6 0.00 0.00 0.00 68 1028.0
20260506112222 16 87 0.0 1.6 0.00 0.00 0.00 68 1028.0
20260506112021 16 87 0.0 1.6 0.00 0.00 0.00 68 1028.0
20260506111822 16 87 0.0 1.6 0.00 0.00 0.00 68 1028.0
20260506111620 16 87 0.0 1.6 0.00 0.00 0.00 68 1028.0
20260506111420 16 87 0.0 1.6 0.00 0.00 0.00 67 1028.0
20260506111220 16 87 0.0 1.6 0.00 0.00 0.00 67 1027.9
20260506111019 16 87 0.0 1.6 0.00 0.00 0.00 68 1027.9
20260506110819 16 72 0.0 1.6 0.00 0.00 0.00 67 1027.9
20260506110618 16 72 0.0 1.6 0.00 0.00 0.00 67 1027.9
20260506110418 16 72 0.0 1.6 0.00 0.00 0.00 67 1027.9
20260506110217 16 72 0.0 1.6 0.00 0.00 0.00 67 1027.8
20260506110019 16 72 0.0 1.6 0.00 0.00 0.00 67 1027.9
20260506105816 17 72 0.0 1.6 0.00 0.00 0.00 67 1027.9
20260506105613 17 72 0.0 1.6 0.00 0.00 0.00 67 1027.8
20260506105413 17 72 0.0 1.6 0.00 0.00 0.00 67 1027.9
20260506105213 17 72 0.0 1.6 0.00 0.00 0.00 66 1027.9
20260506105012 17 72 0.0 1.6 0.00 0.00 0.00 66 1027.7
20260506104811 17 72 0.0 1.6 0.00 0.00 0.00 66 1027.8
20260506104611 17 72 0.0 1.6 0.00 0.00 0.00 66 1027.8
20260506104410 17 72 0.0 1.6 0.00 0.00 0.00 66 1027.7
20260506104210 17 72 0.0 1.6 0.00 0.00 0.00 66 1027.7
20260506104009 17 72 0.0 1.6 0.00 0.00 0.00 66 1027.7
20260506103809 17 72 0.0 1.6 0.00 0.00 0.00 66 1027.7
20260506103609 17 72 0.0 1.6 0.00 0.00 0.00 65 1027.7
20260506103408 17 72 0.0 1.6 0.00 0.00 0.00 65 1027.7
20260506103208 17 72 0.0 1.6 0.00 0.00 0.00 65 1027.7
20260506103008 17 72 0.0 1.6 0.00 0.00 0.00 65 1027.7
20260506102808 17 72 0.0 1.6 0.00 0.00 0.00 65 1027.6
20260506102606 17 72 0.0 1.6 0.00 0.00 0.00 64 1027.6
20260506102406 17 72 0.0 1.6 0.00 0.00 0.00 64 1027.6
20260506102206 18 72 0.0 1.6 0.00 0.00 0.00 63 1027.7
20260506102005 18 72 0.0 0.0 0.00 0.00 0.00 63 1027.6
20260506101805 18 72 0.0 0.0 0.00 0.00 0.00 62 1027.6
20260506101603 18 72 0.0 0.0 0.00 0.00 0.00 62 1027.6
20260506101402 18 72 0.0 0.0 0.00 0.00 0.00 62 1027.6
20260506101202 18 72 0.0 1.6 0.00 0.00 0.00 61 1027.6
20260506101002 18 72 0.0 1.6 0.00 0.00 0.00 61 1027.5
20260506100802 18 72 0.0 1.6 0.00 0.00 0.00 60 1027.5
20260506100602 18 72 0.0 1.6 0.00 0.00 0.00 60 1027.4
20260506100402 18 72 0.0 1.6 0.00 0.00 0.00 60 1027.5
20260506100202 18 72 0.0 0.0 0.00 0.00 0.00 59 1027.4
20260506100002 18 72 0.0 1.6 0.00 0.00 0.00 59 1027.3
20260506095802 19 72 0.0 1.6 0.00 0.00 0.00 58 1027.4
20260506095601 19 72 0.0 1.6 0.00 0.00 0.00 58 1027.3
20260506095403 19 72 0.0 1.6 0.00 0.00 0.00 58 1027.4
20260506095201 19 72 0.0 1.6 0.00 0.00 0.00 58 1027.3
20260506095003 19 72 0.0 3.2 0.00 0.00 0.00 57 1027.3
20260506094801 19 72 0.0 3.2 0.00 0.00 0.00 57 1027.1
20260506094602 20 72 1.6 3.2 0.00 0.00 0.00 57 1027.2
20260506094402 20 72 0.0 3.2 0.00 0.00 0.00 57 1027.2
20260506094202 20 70 1.6 3.2 0.00 0.00 0.00 57 1027.2
20260506094002 20 70 1.6 4.8 0.00 0.00 0.00 57 1027.1
20260506093802 20 70 0.0 4.8 0.00 0.00 0.00 56 1027.1
20260506093602 20 70 0.0 4.8 0.00 0.00 0.00 56 1027.1
20260506093402 20 70 0.0 4.8 0.00 0.00 0.00 56 1027.1
20260506093202 20 70 0.0 4.8 0.00 0.00 0.00 56 1027.1
20260506093002 20 70 0.0 4.8 0.00 0.00 0.00 56 1027.0
20260506092802 20 70 0.0 4.8 0.00 0.00 0.00 55 1027.0
20260506092602 20 70 0.0 4.8 0.00 0.00 0.00 55 1027.0
20260506092402 20 70 0.0 4.8 0.00 0.00 0.00 55 1026.9
20260506092202 20 70 1.6 4.8 0.00 0.00 0.00 55 1027.0
20260506092003 20 73 0.0 3.2 0.00 0.00 0.00 55 1026.9
20260506091802 20 73 0.0 3.2 0.00 0.00 0.00 55 1026.8
20260506091602 20 73 1.6 4.8 0.00 0.00 0.00 54 1026.9
20260506091402 21 73 1.6 4.8 0.00 0.00 0.00 54 1026.8
20260506091202 21 69 1.6 4.8 0.00 0.00 0.00 54 1026.9
20260506091002 21 52 0.0 11.3 0.00 0.00 0.00 54 1026.8
20260506090802 21 75 1.6 11.3 0.00 0.00 0.00 54 1026.8
20260506090602 21 77 1.6 11.3 0.00 0.00 0.00 53 1026.8
20260506090402 21 53 1.6 11.3 0.00 0.00 0.00 53 1026.8
20260506090202 21 53 6.4 11.3 0.00 0.00 0.00 53 1026.9
20260506090003 21 113 3.2 6.4 0.00 0.00 0.00 53 1026.8
20260506085802 21 178 1.6 4.8 0.00 0.00 0.00 54 1026.8
20260506085602 21 178 1.6 4.8 0.00 0.00 0.00 54 1026.8
20260506085402 21 61 1.6 4.8 0.00 0.00 0.00 54 1026.8
20260506085202 21 59 3.2 4.8 0.00 0.00 0.00 54 1026.8
20260506085002 21 51 1.6 4.8 0.00 0.00 0.00 54 1026.8
20260506084802 21 51 1.6 4.8 0.00 0.00 0.00 53 1026.8
20260506084602 21 51 1.6 4.8 0.00 0.00 0.00 53 1026.8
20260506084402 21 49 1.6 6.4 0.00 0.00 0.00 53 1026.8
20260506084201 21 49 1.6 6.4 0.00 0.00 0.00 53 1026.8
20260506084002 21 49 1.6 6.4 0.00 0.00 0.00 53 1026.8
20260506083802 21 49 1.6 6.4 0.00 0.00 0.00 53 1026.8
20260506083602 21 49 1.6 6.4 0.00 0.00 0.00 53 1026.8
20260506083402 21 75 1.6 4.8 0.00 0.00 0.00 53 1026.8
20260506083201 22 56 3.2 4.8 0.00 0.00 0.00 52 1026.8
20260506083003 22 72 1.6 4.8 0.00 0.00 0.00 52 1026.8
20260506082803 22 83 1.6 4.8 0.00 0.00 0.00 52 1026.8
20260506082602 22 61 1.6 4.8 0.00 0.00 0.00 52 1026.8
20260506082403 22 86 1.6 4.8 0.00 0.00 0.00 52 1026.8
20260506082202 22 87 1.6 6.4 0.00 0.00 0.00 52 1026.7
20260506082002 22 86 1.6 6.4 0.00 0.00 0.00 51 1026.8
20260506081802 22 82 3.2 6.4 0.00 0.00 0.00 51 1026.8
20260506081602 22 113 3.2 6.4 0.00 0.00 0.00 51 1026.8
20260506081401 22 124 1.6 6.4 0.00 0.00 0.00 51 1026.8
20260506081201 22 103 0.0 6.4 0.00 0.00 0.00 51 1026.7
20260506081000 22 103 3.2 6.4 0.00 0.00 0.00 51 1026.8
20260506080801 22 86 3.2 6.4 0.00 0.00 0.00 51 1026.8
20260506080601 22 84 3.2 4.8 0.00 0.00 0.00 51 1026.7
20260506080351 22 84 3.2 4.8 0.00 0.00 0.00 51 1026.7
20260506080149 22 83 1.6 4.8 0.00 0.00 0.00 50 1026.7
20260506073347 24 108 3.2 11.3 0.00 0.00 0.00 48 1026.7
20260506073145 24 103 1.6 11.3 0.00 0.00 0.00 48 1026.7
20260506072945 24 103 1.6 11.3 0.00 0.00 0.00 48 1026.7
20260506072745 24 103 3.2 11.3 0.00 0.00 0.00 47 1026.7
20260506072545 24 69 4.8 11.3 0.00 0.00 0.00 47 1026.6
20260506072346 24 111 1.6 6.4 0.00 0.00 0.00 48 1026.7
20260506072145 24 52 3.2 6.4 0.00 0.00 0.00 48 1026.7
20260506071946 24 127 1.6 6.4 0.00 0.00 0.00 48 1026.7
20260506071746 24 115 3.2 8.0 0.00 0.00 0.00 49 1026.6
20260506071545 24 121 3.2 8.0 0.00 0.00 0.00 48 1026.6
20260506071345 24 99 3.2 9.7 0.00 0.00 0.00 49 1026.6
20260506071146 24 99 3.2 9.7 0.00 0.00 0.00 49 1026.6
20260506070946 24 96 3.2 9.7 0.00 0.00 0.00 48 1026.6
20260506070745 24 79 4.8 9.7 0.00 0.00 0.00 48 1026.7
20260506070545 24 73 3.2 9.7 0.00 0.00 0.00 48 1026.7
20260506070345 24 90 3.2 6.4 0.00 0.00 0.00 48 1026.6
20260506070146 24 101 3.2 8.0 0.00 0.00 0.00 48 1026.8
20260506062344 24 72 3.2 8.0 0.00 0.00 0.00 49 1026.7
20260506062144 24 70 4.8 8.0 0.00 0.00 0.00 48 1026.6
20260506061944 24 65 3.2 9.7 0.00 0.00 0.00 48 1026.6
20260506061744 24 87 3.2 9.7 0.00 0.00 0.00 48 1026.7
20260506061544 24 73 4.8 9.7 0.00 0.00 0.00 47 1026.6
20260506061344 25 108 4.8 9.7 0.00 0.00 0.00 47 1026.7
20260506061144 25 46 6.4 9.7 0.00 0.00 0.00 47 1026.7
20260506060944 25 101 3.2 9.7 0.00 0.00 0.00 48 1026.7
20260506060744 25 148 4.8 9.7 0.00 0.00 0.00 48 1026.7
20260506060545 25 114 4.8 9.7 0.00 0.00 0.00 48 1026.8
20260506060344 24 42 1.6 8.0 0.00 0.00 0.00 49 1026.8
20260506060143 24 31 3.2 8.0 0.00 0.00 0.00 48 1026.8
20260506051331 23 45 4.8 17.7 0.00 0.00 0.00 50 1027.0
20260506051131 23 63 4.8 9.7 0.00 0.00 0.00 51 1026.9
20260506050930 23 53 6.4 9.7 0.00 0.00 0.00 50 1027.0
20260506050729 23 53 4.8 8.0 0.00 0.00 0.00 51 1027.0
20260506050529 23 66 3.2 11.3 0.00 0.00 0.00 51 1027.0
20260506050328 23 65 4.8 11.3 0.00 0.00 0.00 51 1027.0
20260506050128 23 59 4.8 11.3 0.00 0.00 0.00 51 1027.0
20260506045127 24 58 3.2 9.7 0.00 0.00 0.00 51 1027.2
20260506044926 24 97 1.6 9.7 0.00 0.00 0.00 50 1027.2
20260506044725 24 99 4.8 9.7 0.00 0.00 0.00 50 1027.1
20260506044525 24 63 6.4 9.7 0.00 0.00 0.00 49 1027.2
20260506044324 24 66 4.8 8.0 0.00 0.00 0.00 50 1027.3
20260506044124 24 77 3.2 4.8 0.00 0.00 0.00 51 1027.3
20260506043923 23 75 1.6 6.4 0.00 0.00 0.00 52 1027.3
20260506043723 23 75 1.6 6.4 0.00 0.00 0.00 52 1027.3
20260506043519 23 75 3.2 8.0 0.00 0.00 0.00 51 1027.3
20260506043319 23 83 1.6 9.7 0.00 0.00 0.00 52 1027.3
20260506043119 23 83 3.2 9.7 0.00 0.00 0.00 52 1027.4
20260506042918 23 53 4.8 9.7 0.00 0.00 0.00 52 1027.4
20260506042718 23 73 4.8 11.3 0.00 0.00 0.00 52 1027.4
20260506042517 23 63 6.4 11.3 0.00 0.00 0.00 52 1027.5
20260506042317 23 62 3.2 11.3 0.00 0.00 0.00 52 1027.6
20260506042117 23 49 6.4 11.3 0.00 0.00 0.00 51 1027.6
20260506041916 23 73 6.4 11.3 0.00 0.00 0.00 52 1027.6
20260506041716 23 61 3.2 9.7 0.00 0.00 0.00 52 1027.6
20260506041516 23 61 4.8 9.7 0.00 0.00 0.00 52 1027.7
20260506041315 23 13 6.4 11.3 0.00 0.00 0.00 52 1027.7
20260506041115 23 52 6.4 11.3 0.00 0.00 0.00 52 1027.7
20260506040914 23 56 4.8 11.3 0.00 0.00 0.00 52 1027.7
20260506040714 23 73 4.8 11.3 0.00 0.00 0.00 52 1027.8
20260506040513 23 51 6.4 11.3 0.00 0.00 0.00 52 1027.8
20260506040315 23 77 4.8 9.7 0.00 0.00 0.00 53 1027.9
20260506040112 23 65 3.2 9.7 0.00 0.00 0.00 53 1027.9
20260506035913 23 63 4.8 11.3 0.00 0.00 0.00 53 1027.9
20260506035708 23 68 3.2 11.3 0.00 0.00 0.00 53 1027.9
20260506035508 23 62 3.2 11.3 0.00 0.00 0.00 54 1027.9
20260506035308 22 37 4.8 11.3 0.00 0.00 0.00 54 1027.9
20260506035107 22 34 3.2 11.3 0.00 0.00 0.00 54 1027.9
20260506034907 22 70 6.4 9.7 0.00 0.00 0.00 53 1027.9
20260506034707 22 22 4.8 9.7 0.00 0.00 0.00 54 1028.0
20260506034506 22 87 4.8 16.1 0.00 0.00 0.00 54 1028.0
20260506034306 22 55 4.8 16.1 0.00 0.00 0.00 55 1028.0
20260506034105 22 62 4.8 16.1 0.00 0.00 0.00 54 1028.0
20260506033905 22 73 6.4 16.1 0.00 0.00 0.00 54 1028.1
20260506033705 22 46 4.8 16.1 0.00 0.00 0.00 54 1028.1
20260506033504 22 89 4.8 14.5 0.00 0.00 0.00 54 1028.0
20260506033305 22 101 4.8 11.3 0.00 0.00 0.00 54 1028.2
20260506033105 22 87 6.4 11.3 0.00 0.00 0.00 54 1028.2
20260506032906 22 62 6.4 11.3 0.00 0.00 0.00 54 1028.2
20260506032705 22 48 4.8 11.3 0.00 0.00 0.00 55 1028.2
20260506032505 22 86 6.4 11.3 0.00 0.00 0.00 54 1028.2
20260506032306 22 59 3.2 11.3 0.00 0.00 0.00 55 1028.1
20260506032105 22 68 6.4 11.3 0.00 0.00 0.00 54 1028.2
20260506031905 22 59 6.4 11.3 0.00 0.00 0.00 54 1028.2
20260506031700 22 38 6.4 11.3 0.00 0.00 0.00 55 1028.2
20260506031459 22 73 4.8 11.3 0.00 0.00 0.00 56 1028.3
20260506031259 22 62 6.4 11.3 0.00 0.00 0.00 56 1028.2
20260506031059 22 120 4.8 8.0 0.00 0.00 0.00 56 1028.3
20260506030858 22 10 4.8 8.0 0.00 0.00 0.00 56 1028.4
20260506030700 22 65 3.2 6.4 0.00 0.00 0.00 57 1028.3
20260506030457 22 62 4.8 8.0 0.00 0.00 0.00 57 1028.4
20260506030254 21 59 4.8 11.3 0.00 0.00 0.00 57 1028.4
20260506030053 21 90 3.2 11.3 0.00 0.00 0.00 58 1028.3
20260506025846 21 73 4.8 11.3 0.00 0.00 0.00 57 1028.4
20260506025643 21 63 4.8 11.3 0.00 0.00 0.00 57 1028.4
20260506025444 21 59 6.4 11.3 0.00 0.00 0.00 57 1028.4
20260506025244 21 66 4.8 9.7 0.00 0.00 0.00 58 1028.4
20260506025043 21 141 3.2 11.3 0.00 0.00 0.00 58 1028.4
20260506024843 21 53 4.8 11.3 0.00 0.00 0.00 58 1028.4
20260506024642 21 75 4.8 11.3 0.00 0.00 0.00 58 1028.5
20260506024442 21 41 6.4 11.3 0.00 0.00 0.00 58 1028.4
20260506024242 21 49 6.4 11.3 0.00 0.00 0.00 58 1028.4
20260506024042 21 70 4.8 9.7 0.00 0.00 0.00 59 1028.4
20260506023842 21 77 4.8 14.5 0.00 0.00 0.00 58 1028.5
20260506023642 21 48 6.4 14.5 0.00 0.00 0.00 58 1028.4
20260506023443 21 79 6.4 14.5 0.00 0.00 0.00 58 1028.4
20260506023242 21 48 6.4 14.5 0.00 0.00 0.00 58 1028.5
20260506023041 21 72 6.4 14.5 0.00 0.00 0.00 58 1028.5
20260506022842 21 20 6.4 14.5 0.00 0.00 0.00 59 1028.5
20260506022642 21 63 4.8 14.5 0.00 0.00 0.00 59 1028.6
20260506022442 21 70 4.8 14.5 0.00 0.00 0.00 59 1028.5
20260506022242 21 69 4.8 14.5 0.00 0.00 0.00 59 1028.6
20260506022042 20 46 6.4 14.5 0.00 0.00 0.00 59 1028.6
20260506021841 20 80 3.2 9.7 0.00 0.00 0.00 61 1028.6
20260506021641 20 89 3.2 9.7 0.00 0.00 0.00 62 1028.6
20260506021442 20 59 1.6 9.7 0.00 0.00 0.00 62 1028.7
20260506021241 20 59 3.2 9.7 0.00 0.00 0.00 62 1028.7
20260506021041 20 61 4.8 9.7 0.00 0.00 0.00 62 1028.7
20260506020842 20 72 1.6 9.7 0.00 0.00 0.00 63 1028.7
20260506020643 20 72 3.2 9.7 0.00 0.00 0.00 63 1028.7
20260506020440 20 87 3.2 9.7 0.00 0.00 0.00 62 1028.7
20260506020235 20 75 4.8 9.7 0.00 0.00 0.00 63 1028.7
20260506020034 19 63 3.2 11.3 0.00 0.00 0.00 64 1028.8
20260506015833 19 165 3.2 11.3 0.00 0.00 0.00 63 1028.8
20260506015633 19 104 4.8 11.3 0.00 0.00 0.00 64 1028.8
20260506015433 19 66 3.2 11.3 0.00 0.00 0.00 64 1028.8
20260506015232 19 29 4.8 11.3 0.00 0.00 0.00 65 1028.7
20260506015032 19 39 3.2 9.7 0.00 0.00 0.00 65 1028.8
20260506014832 18 77 4.8 6.4 0.00 0.00 0.00 66 1028.8
20260506014630 18 115 3.2 11.3 0.00 0.00 0.00 66 1028.8
20260506014431 18 115 3.2 11.3 0.00 0.00 0.00 67 1028.8
20260506014231 18 107 1.6 11.3 0.00 0.00 0.00 67 1028.8
20260506014031 18 107 1.6 11.3 0.00 0.00 0.00 67 1028.8
20260506013831 18 65 3.2 11.3 0.00 0.00 0.00 68 1028.8
20260506013631 18 59 3.2 8.0 0.00 0.00 0.00 67 1028.9
20260506013431 18 117 3.2 6.4 0.00 0.00 0.00 68 1028.9
20260506013232 18 106 1.6 9.7 0.00 0.00 0.00 69 1028.8
20260506013031 17 106 1.6 9.7 0.00 0.00 0.00 69 1028.9
20260506012831 17 106 3.2 9.7 0.00 0.00 0.00 70 1028.9
20260506012631 17 66 3.2 9.7 0.00 0.00 0.00 70 1028.9
20260506012431 17 72 4.8 9.7 0.00 0.00 0.00 70 1028.9
20260506012231 17 86 3.2 9.7 0.00 0.00 0.00 71 1028.9
20260506012031 17 59 3.2 9.7 0.00 0.00 0.00 71 1028.8
20260506011831 17 51 3.2 9.7 0.00 0.00 0.00 72 1028.9
20260506011631 16 79 1.6 9.7 0.00 0.00 0.00 72 1028.9
20260506011431 16 79 3.2 9.7 0.00 0.00 0.00 73 1028.9
20260506011232 16 58 4.8 9.7 0.00 0.00 0.00 73 1028.9
20260506011031 16 59 3.2 8.0 0.00 0.00 0.00 74 1028.9
20260506010831 16 53 3.2 8.0 0.00 0.00 0.00 75 1028.9
20260506010631 15 53 4.8 9.7 0.00 0.00 0.00 75 1028.8
20260506010431 15 80 3.2 9.7 0.00 0.00 0.00 76 1028.9
20260506010230 15 77 3.2 9.7 0.00 0.00 0.00 76 1028.8
20260506010031 15 77 4.8 9.7 0.00 0.00 0.00 76 1028.9
20260506005830 15 66 4.8 9.7 0.00 0.00 0.00 77 1028.9
20260506005631 15 94 3.2 8.0 0.00 0.00 0.00 77 1028.9
20260506005431 15 94 3.2 8.0 0.00 0.00 0.00 77 1028.9
20260506005231 15 93 3.2 6.4 0.00 0.00 0.00 78 1028.8
20260506005031 14 92 3.2 9.7 0.00 0.00 0.00 78 1028.8
20260506004830 14 42 3.2 11.3 0.00 0.00 0.00 79 1028.8
20260506004629 14 41 3.2 11.3 0.00 0.00 0.00 79 1028.8
20260506004430 14 55 3.2 11.3 0.00 0.00 0.00 79 1028.8
20260506004228 14 61 3.2 11.3 0.00 0.00 0.00 80 1028.8
20260506004029 13 89 4.8 11.3 0.00 0.00 0.00 80 1028.8
20260506003828 13 69 3.2 6.4 0.00 0.00 0.00 81 1028.7
20260506003625 13 63 3.2 6.4 0.00 0.00 0.00 81 1028.7
20260506003424 13 69 1.6 4.8 0.00 0.00 0.00 81 1028.6
20260506003224 13 173 3.2 4.8 0.00 0.00 0.00 82 1028.6
20260506003023 13 99 1.6 4.8 0.00 0.00 0.00 82 1028.5
20260506002823 13 100 1.6 4.8 0.00 0.00 0.00 82 1028.4
20260506002623 13 76 1.6 6.4 0.00 0.00 0.00 83 1028.3
20260506002422 13 76 3.2 6.4 0.00 0.00 0.00 83 1028.3
20260506002221 13 75 0.0 6.4 0.00 0.00 0.00 83 1028.2
20260506002021 12 77 1.6 6.4 0.00 0.00 0.00 83 1028.2
20260506001820 12 41 3.2 6.4 0.00 0.00 0.00 83 1028.2
20260506001620 12 89 1.6 4.8 0.00 0.00 0.00 83 1028.1
20260506001421 12 48 1.6 4.8 0.00 0.00 0.00 83 1028.1
20260506001220 12 48 1.6 4.8 0.00 0.00 0.00 83 1028.1
20260506001019 12 48 1.6 4.8 0.00 0.00 0.00 83 1028.1
20260506000819 12 48 1.6 4.8 0.00 0.00 0.00 83 1028.1
20260506000618 12 45 1.6 4.8 0.00 0.00 0.00 84 1028.1
20260506000418 12 38 1.6 4.8 0.00 0.00 0.00 84 1028.1
20260506000219 12 80 1.6 4.8 0.00 0.00 0.00 84 1028.1
20260506000017 12 51 1.6 4.8 0.00 0.00 0.00 84 1028.1
20260505235804 12 120 0.0 3.2 0.00 0.00 0.00 84 1028.2
20260505235604 12 151 1.6 3.2 0.00 0.00 0.00 84 1028.2
20260505235404 12 151 0.0 1.6 0.00 0.00 0.00 84 1028.2
20260505235204 12 151 0.0 1.6 0.00 0.00 0.00 84 1028.1
20260505235004 12 151 0.0 4.8 0.00 0.00 0.00 84 1028.1
20260505234804 12 151 0.0 4.8 0.00 0.00 0.00 84 1028.1
20260505234605 12 151 0.0 4.8 0.00 0.00 0.00 84 1028.1
20260505234404 12 151 0.0 4.8 0.00 0.00 0.00 84 1028.0
20260505234205 12 183 1.6 4.8 0.00 0.00 0.00 84 1028.0
20260505234004 12 49 0.0 3.2 0.00 0.00 0.00 84 1028.0
20260505233805 12 49 1.6 3.2 0.00 0.00 0.00 84 1028.0
20260505233603 12 45 0.0 3.2 0.00 0.00 0.00 84 1027.9
20260505233404 12 45 0.0 3.2 0.00 0.00 0.00 84 1027.9
20260505233205 12 45 0.0 3.2 0.00 0.00 0.00 83 1027.9
20260505233004 12 45 0.0 1.6 0.00 0.00 0.00 83 1027.8
20260505232804 12 45 0.0 1.6 0.00 0.00 0.00 83 1027.8
20260505232604 12 45 0.0 1.6 0.00 0.00 0.00 83 1027.7
20260505232404 12 45 0.0 3.2 0.00 0.00 0.00 83 1027.7
20260505232204 12 45 0.0 3.2 0.00 0.00 0.00 83 1027.6
20260505232005 12 45 0.0 3.2 0.00 0.00 0.00 83 1027.6
20260505231804 12 45 0.0 3.2 0.00 0.00 0.00 83 1027.6
20260505231602 12 45 0.0 3.2 0.00 0.00 0.00 83 1027.5
20260505231401 12 45 0.0 1.6 0.00 0.00 0.00 83 1027.4
20260505231201 12 45 0.0 1.6 0.00 0.00 0.00 83 1027.5
20260505231000 12 45 0.0 1.6 0.00 0.00 0.00 83 1027.4
20260505230800 12 45 0.0 1.6 0.00 0.00 0.00 83 1027.5
20260505230559 12 45 0.0 3.2 0.00 0.00 0.00 83 1027.5
20260505230359 12 45 0.0 3.2 0.00 0.00 0.00 83 1027.3
20260505230158 12 45 0.0 3.2 0.00 0.00 0.00 82 1027.3
20260505225958 12 45 0.0 3.2 0.00 0.00 0.00 82 1027.3
20260505225757 12 45 0.0 3.2 0.00 0.00 0.00 82 1027.3
20260505225557 12 45 0.0 4.8 0.00 0.00 0.00 82 1027.2
20260505225356 12 44 0.0 4.8 0.00 0.00 0.00 82 1027.2
20260505225156 12 44 0.0 4.8 0.00 0.00 0.00 82 1027.1
20260505224955 12 44 0.0 4.8 0.00 0.00 0.00 82 1027.2
20260505224755 12 44 1.6 4.8 0.00 0.00 0.00 82 1027.1
20260505224555 12 45 0.0 4.8 0.00 0.00 0.00 82 1027.0
20260505224355 12 44 0.0 6.4 0.00 0.00 0.00 82 1027.1
20260505224153 12 44 0.0 6.4 0.00 0.00 0.00 82 1027.1
20260505223951 12 49 0.0 6.4 0.00 0.00 0.00 82 1027.1
20260505223750 12 49 1.6 6.4 0.00 0.00 0.00 82 1027.2
20260505223550 12 103 0.0 3.2 0.00 0.00 0.00 81 1027.1
20260505223350 12 103 0.0 3.2 0.00 0.00 0.00 81 1027.1
20260505223149 12 103 0.0 1.6 0.00 0.00 0.00 81 1027.1
20260505222948 12 103 0.0 3.2 0.00 0.00 0.00 81 1027.1
20260505222749 12 103 0.0 3.2 0.00 0.00 0.00 81 1027.0
20260505222548 12 103 0.0 4.8 0.00 0.00 0.00 81 1027.0
20260505222347 12 103 0.0 4.8 0.00 0.00 0.00 81 1027.0
20260505222147 12 103 0.0 4.8 0.00 0.00 0.00 81 1026.9
20260505221947 12 103 1.6 4.8 0.00 0.00 0.00 81 1027.0
20260505221746 12 104 0.0 4.8 0.00 0.00 0.00 81 1026.9
20260505221546 12 104 0.0 4.8 0.00 0.00 0.00 81 1026.9
20260505221345 12 104 0.0 4.8 0.00 0.00 0.00 81 1027.0
20260505221145 12 104 1.6 4.8 0.00 0.00 0.00 81 1026.8
20260505220944 12 104 1.6 3.2 0.00 0.00 0.00 81 1026.9
20260505220743 12 104 1.6 4.8 0.00 0.00 0.00 81 1026.8
20260505220543 12 104 0.0 4.8 0.00 0.00 0.00 81 1026.9
20260505220342 12 104 1.6 4.8 0.00 0.00 0.00 81 1026.9
20260505220141 12 104 0.0 4.8 0.00 0.00 0.00 81 1026.8
20260505215936 12 104 1.6 4.8 0.00 0.00 0.00 81 1026.9
20260505215736 12 106 1.6 3.2 0.00 0.00 0.00 80 1026.8
20260505215536 12 107 0.0 3.2 0.00 0.00 0.00 80 1026.8
20260505215336 12 106 0.0 4.8 0.00 0.00 0.00 80 1026.8
20260505215136 12 106 0.0 4.8 0.00 0.00 0.00 80 1026.8
20260505214936 12 106 1.6 4.8 0.00 0.00 0.00 80 1026.7
20260505214736 12 106 1.6 4.8 0.00 0.00 0.00 80 1026.8
20260505214535 12 106 3.2 4.8 0.00 0.00 0.00 80 1026.8
20260505214335 12 107 1.6 4.8 0.00 0.00 0.00 80 1026.8
20260505214136 12 107 1.6 4.8 0.00 0.00 0.00 80 1026.8
20260505213935 12 107 0.0 6.4 0.00 0.00 0.00 80 1026.8
20260505213735 12 107 3.2 6.4 0.00 0.00 0.00 80 1026.7
20260505213536 12 107 1.6 6.4 0.00 0.00 0.00 80 1026.7
20260505213337 12 62 3.2 6.4 0.00 0.00 0.00 80 1026.6
20260505213135 12 61 3.2 6.4 0.00 0.00 0.00 80 1026.6
20260505212936 12 87 1.6 6.4 0.00 0.00 0.00 80 1026.6
20260505212735 12 87 1.6 6.4 0.00 0.00 0.00 80 1026.5
20260505212534 12 66 3.2 6.4 0.00 0.00 0.00 80 1026.5
20260505212335 12 103 1.6 6.4 0.00 0.00 0.00 80 1026.5
20260505212135 12 103 1.6 6.4 0.00 0.00 0.00 80 1026.5
20260505211936 12 103 1.6 4.8 0.00 0.00 0.00 80 1026.5
20260505211734 12 103 1.6 4.8 0.00 0.00 0.00 80 1026.5
20260505211534 12 103 1.6 4.8 0.00 0.00 0.00 80 1026.5
20260505211334 13 103 3.2 4.8 0.00 0.00 0.00 80 1026.5
20260505211135 13 103 3.2 4.8 0.00 0.00 0.00 80 1026.6
20260505210934 13 103 1.6 4.8 0.00 0.00 0.00 80 1026.5
20260505210734 13 103 1.6 4.8 0.00 0.00 0.00 80 1026.5
20260505210538 13 104 1.6 4.8 0.00 0.00 0.00 80 1026.5
20260505210334 13 113 1.6 9.7 0.00 0.00 0.00 79 1026.5
20260505210137 13 25 1.6 9.7 0.00 0.00 0.00 79 1026.4
20260505205934 13 25 1.6 9.7 0.00 0.00 0.00 79 1026.4
20260505205734 13 25 1.6 9.7 0.00 0.00 0.00 79 1026.4
20260505205534 13 25 3.2 9.7 0.00 0.00 0.00 80 1026.4
20260505205333 13 106 1.6 4.8 0.00 0.00 0.00 79 1026.5
20260505205133 13 106 3.2 4.8 0.00 0.00 0.00 80 1026.4
20260505204929 13 106 1.6 6.4 0.00 0.00 0.00 80 1026.4
20260505204706 13 107 0.0 6.4 0.00 0.00 0.00 80 1026.4
20260505204505 13 107 1.6 6.4 0.00 0.00 0.00 79 1026.4
20260505204305 13 107 3.2 6.4 0.00 0.00 0.00 79 1026.3
20260505204106 13 107 1.6 4.8 0.00 0.00 0.00 79 1026.3
20260505203904 13 96 1.6 6.4 0.00 0.00 0.00 79 1026.4
20260505203705 13 96 0.0 6.4 0.00 0.00 0.00 79 1026.3
20260505203507 13 96 1.6 6.4 0.00 0.00 0.00 79 1026.3
20260505203306 13 96 1.6 8.0 0.00 0.00 0.00 79 1026.3
20260505203105 13 96 3.2 8.0 0.00 0.00 0.00 79 1026.3
20260505202905 13 79 1.6 8.0 0.00 0.00 0.00 79 1026.2
20260505202705 13 77 1.6 8.0 0.00 0.00 0.00 79 1026.3
20260505202505 13 77 1.6 8.0 0.00 0.00 0.00 79 1026.2
20260505202306 13 124 1.6 4.8 0.00 0.00 0.00 79 1026.2
20260505202104 13 124 1.6 4.8 0.00 0.00 0.00 79 1026.2
20260505201904 13 124 1.6 4.8 0.00 0.00 0.00 79 1026.1
20260505201702 13 125 1.6 4.8 0.00 0.00 0.00 79 1026.2
20260505201455 13 125 1.6 4.8 0.00 0.00 0.00 79 1026.2
20260505201255 13 125 0.0 4.8 0.00 0.00 0.00 79 1026.2
20260505201055 13 125 1.6 4.8 0.00 0.00 0.00 79 1026.1
20260505200854 13 125 1.6 4.8 0.00 0.00 0.00 79 1026.1
20260505200655 13 134 0.0 4.8 0.00 0.00 0.00 79 1026.1
20260505200454 13 134 1.6 4.8 0.00 0.00 0.00 79 1026.1
20260505200254 13 134 1.6 4.8 0.00 0.00 0.00 79 1026.0
20260505200053 13 135 0.0 4.8 0.00 0.00 0.00 79 1026.1
20260505195852 13 135 0.0 4.8 0.00 0.00 0.00 79 1026.2
20260505195651 13 135 1.6 4.8 0.00 0.00 0.00 79 1026.1
20260505195451 13 137 0.0 4.8 0.00 0.00 0.00 79 1026.1
20260505195251 13 137 0.0 4.8 0.00 0.00 0.00 79 1026.1
20260505195051 13 137 0.0 4.8 0.00 0.00 0.00 79 1026.1
20260505194850 13 137 0.0 4.8 0.00 0.00 0.00 78 1026.1
20260505194649 13 137 1.6 3.2 0.00 0.00 0.00 78 1026.1
20260505194449 13 138 0.0 3.2 0.00 0.00 0.00 78 1026.2
20260505194248 13 138 0.0 3.2 0.00 0.00 0.00 78 1026.1
20260505194049 13 138 0.0 3.2 0.00 0.00 0.00 78 1026.1
20260505193844 13 138 0.0 3.2 0.00 0.00 0.00 78 1026.2
20260505193645 13 138 0.0 3.2 0.00 0.00 0.00 78 1026.2
20260505193444 13 138 0.0 3.2 0.00 0.00 0.00 78 1026.1
20260505193243 13 138 0.0 3.2 0.00 0.00 0.00 78 1026.2
20260505193044 13 138 0.0 3.2 0.00 0.00 0.00 78 1026.2
20260505192843 13 138 0.0 3.2 0.00 0.00 0.00 78 1026.2
20260505192642 13 138 1.6 3.2 0.00 0.00 0.00 78 1026.2
20260505192442 13 138 1.6 3.2 0.00 0.00 0.00 78 1026.1
20260505192241 13 166 0.0 3.2 0.00 0.00 0.00 78 1026.2
20260505192041 13 166 0.0 3.2 0.00 0.00 0.00 77 1026.2
20260505191841 13 166 0.0 3.2 0.00 0.00 0.00 77 1026.2
20260505191641 13 168 0.0 3.2 0.00 0.00 0.00 77 1026.2
20260505191440 13 168 1.6 3.2 0.00 0.00 0.00 77 1026.2
20260505191239 13 134 0.0 3.2 0.00 0.00 0.00 77 1026.1
20260505191039 13 134 0.0 3.2 0.00 0.00 0.00 76 1026.1
20260505190839 13 134 0.0 4.8 0.00 0.00 0.00 76 1026.1
20260505190638 13 134 0.0 4.8 0.00 0.00 0.00 76 1026.1
20260505190437 13 134 0.0 4.8 0.00 0.00 0.00 76 1026.1
20260505190237 13 134 0.0 4.8 0.00 0.00 0.00 76 1026.0
20260505190037 13 134 0.0 4.8 0.00 0.00 0.00 76 1026.0
20260505185805 13 134 0.0 3.2 0.00 0.00 0.00 76 1026.0
20260505185605 13 134 0.0 3.2 0.00 0.00 0.00 76 1026.0
20260505185405 13 134 0.0 3.2 0.00 0.00 0.00 76 1026.0
20260505185205 13 134 0.0 3.2 0.00 0.00 0.00 75 1026.0
20260505185006 13 134 0.0 3.2 0.00 0.00 0.00 76 1026.0
20260505184804 13 134 0.0 3.2 0.00 0.00 0.00 75 1026.0
20260505184605 13 134 0.0 3.2 0.00 0.00 0.00 75 1026.0
20260505184405 13 134 0.0 3.2 0.00 0.00 0.00 75 1026.1
20260505184205 13 134 0.0 3.2 0.00 0.00 0.00 75 1026.1
20260505184006 13 134 1.6 3.2 0.00 0.00 0.00 75 1026.1
20260505183807 13 134 1.6 4.8 0.00 0.00 0.00 75 1026.1
20260505183605 13 137 1.6 4.8 0.00 0.00 0.00 75 1026.1
20260505183405 13 135 1.6 4.8 0.00 0.00 0.00 74 1026.1
20260505183204 13 135 0.0 4.8 0.00 0.00 0.00 74 1026.2
20260505183005 13 135 1.6 4.8 0.00 0.00 0.00 74 1026.2
20260505182805 13 135 0.0 3.2 0.00 0.00 0.00 74 1026.2
20260505182604 14 135 0.0 3.2 0.00 0.00 0.00 74 1026.2
20260505182405 14 135 0.0 3.2 0.00 0.00 0.00 74 1026.3
20260505182142 14 135 0.0 3.2 0.00 0.00 0.00 74 1026.3
20260505181941 14 135 0.0 3.2 0.00 0.00 0.00 74 1026.2
20260505181740 14 135 0.0 3.2 0.00 0.00 0.00 74 1026.2
20260505181541 14 135 0.0 3.2 0.00 0.00 0.00 74 1026.2
20260505181339 14 135 1.6 6.4 0.00 0.00 0.00 74 1026.1
20260505181140 14 135 1.6 6.4 0.00 0.00 0.00 74 1026.2
20260505180935 14 84 1.6 6.4 0.00 0.00 0.00 74 1026.2
20260505180736 14 86 1.6 6.4 0.00 0.00 0.00 74 1026.1
20260505180535 14 76 1.6 6.4 0.00 0.00 0.00 74 1026.2
20260505180335 14 75 3.2 4.8 0.00 0.00 0.00 74 1026.1
20260505180133 14 44 1.6 3.2 0.00 0.00 0.00 74 1026.1
20260505175935 14 32 0.0 14.5 0.00 0.00 0.00 74 1026.2
20260505175734 14 32 1.6 14.5 0.00 0.00 0.00 74 1026.1
20260505175533 14 32 0.0 14.5 0.00 0.00 0.00 74 1026.1
20260505175330 14 32 1.6 14.5 0.00 0.00 0.00 74 1026.1
20260505175129 14 32 3.2 14.5 0.00 0.00 0.00 74 1026.1
20260505174929 14 130 1.6 4.8 0.00 0.00 0.00 74 1026.1
20260505174729 14 130 3.2 4.8 0.00 0.00 0.00 74 1026.0
20260505174529 14 73 3.2 4.8 0.00 0.00 0.00 75 1026.0
20260505174329 14 70 1.6 4.8 0.00 0.00 0.00 75 1026.0
20260505174129 14 70 3.2 4.8 0.00 0.00 0.00 75 1026.0
20260505173929 14 70 1.6 4.8 0.00 0.00 0.00 75 1026.0
20260505173729 13 70 1.6 4.8 0.00 0.00 0.00 75 1025.9
20260505173529 13 70 1.6 4.8 0.00 0.00 0.00 76 1025.9
20260505173329 13 65 1.6 8.0 0.00 0.00 0.00 76 1026.0
20260505173129 13 65 3.2 8.0 0.00 0.00 0.00 76 1026.0
20260505172928 13 63 3.2 8.0 0.00 0.00 0.00 77 1026.0
20260505172729 13 114 3.2 8.0 0.00 0.00 0.00 77 1026.0
20260505172527 13 120 3.2 8.0 0.00 0.00 0.00 77 1025.9
20260505172328 13 87 1.6 6.4 0.00 0.00 0.00 78 1025.9
20260505172127 13 86 1.6 6.4 0.00 0.00 0.00 78 1025.9
20260505171927 13 87 3.2 6.4 0.00 0.00 0.00 78 1025.9
20260505171727 13 72 1.6 6.4 0.00 0.00 0.00 78 1025.9
20260505171527 13 63 0.0 4.8 0.00 0.00 0.00 78 1025.9
20260505171328 13 62 0.0 4.8 0.00 0.00 0.00 78 1025.9
20260505171129 13 62 1.6 4.8 0.00 0.00 0.00 78 1025.9
20260505170928 13 61 1.6 4.8 0.00 0.00 0.00 78 1025.8
20260505170728 13 100 0.0 3.2 0.00 0.00 0.00 79 1025.9
20260505170528 13 135 0.0 0.0 0.00 0.00 0.00 79 1025.9
20260505170328 12 135 0.0 0.0 0.00 0.00 0.00 79 1025.9
20260505170129 12 137 0.0 0.0 0.00 0.00 0.00 79 1025.9
20260505165928 12 137 0.0 0.0 0.00 0.00 0.00 79 1025.9
20260505165730 12 137 0.0 0.0 0.00 0.00 0.00 79 1025.8
20260505165528 12 137 0.0 0.0 0.00 0.00 0.00 79 1025.9
20260505165328 12 137 0.0 0.0 0.00 0.00 0.00 79 1025.9
20260505165128 12 137 0.0 0.0 0.00 0.00 0.00 78 1025.9
20260505164927 12 137 0.0 0.0 0.00 0.00 0.00 78 1025.8
20260505164727 12 137 0.0 0.0 0.00 0.00 0.00 78 1025.9
20260505164529 12 137 0.0 0.0 0.00 0.00 0.00 78 1025.9
20260505164329 12 137 0.0 0.0 0.00 0.00 0.00 78 1025.9
20260505164128 12 137 0.0 0.0 0.00 0.00 0.00 78 1025.8
20260505163928 12 137 0.0 0.0 0.00 0.00 0.00 79 1025.9
20260505163727 12 137 0.0 0.0 0.00 0.00 0.00 78 1025.8
20260505163527 12 137 0.0 0.0 0.00 0.00 0.00 78 1025.8
20260505163327 12 137 0.0 0.0 0.00 0.00 0.00 78 1025.8
20260505163128 12 137 0.0 0.0 0.00 0.00 0.00 79 1025.8
20260505162929 12 137 0.0 0.0 0.00 0.00 0.00 79 1025.8
20260505162727 12 137 0.0 0.0 0.00 0.00 0.00 79 1025.8
20260505162526 12 137 0.0 0.0 0.00 0.00 0.00 79 1025.8
20260505162327 12 137 0.0 0.0 0.00 0.00 0.00 79 1025.8
20260505162127 12 137 0.0 0.0 0.00 0.00 0.00 79 1025.7
20260505161927 12 137 0.0 0.0 0.00 0.00 0.00 79 1025.7
20260505161727 12 137 0.0 0.0 0.00 0.00 0.00 79 1025.6
20260505161528 12 137 0.0 0.0 0.00 0.00 0.00 80 1025.6
20260505161327 12 137 0.0 0.0 0.00 0.00 0.00 80 1025.6
20260505161128 -17 0.0 0.0 0.00 0.00 0.00 1025.6
20260505160928 -17 0.0 0.0 0.00 0.00 0.00 1025.6
20260505160725 -17 0.0 0.0 0.00 0.00 0.00 1025.5
20260505160527 -17 0.0 0.0 0.00 0.00 0.00 1025.6
20260505153304 12 207 0.0 1.6 0.00 0.00 0.00 84 1025.7
20260505153143 12 207 0.0 1.6 0.00 0.00 0.00 84 1025.7
20260505152904 12 207 0.0 1.6 0.00 0.00 0.00 85 1025.7
20260505152700 12 207 0.0 1.6 0.00 0.00 0.00 84 1025.7
20260505152500 12 207 0.0 1.6 0.00 0.00 0.00 85 1025.6
20260505152259 12 207 0.0 1.6 0.00 0.00 0.00 85 1025.6
20260505152100 12 207 0.0 0.0 0.00 0.00 0.00 84 1025.7
20260505151900 12 207 0.0 0.0 0.00 0.00 0.00 84 1025.6
20260505151658 12 207 0.0 0.0 0.00 0.00 0.00 84 1025.6
20260505151458 12 207 0.0 0.0 0.00 0.00 0.00 84 1025.7
20260505151257 12 207 0.0 0.0 0.00 0.00 0.00 84 1025.6
20260505151057 12 207 0.0 0.0 0.00 0.00 0.00 83 1025.6
20260505150856 12 207 0.0 0.0 0.00 0.00 0.00 83 1025.6